Preview of NWS' New Version of Forecast
This preview is not operational and should not be used for support decisions.

Regional Weather Roundup (RWR)

Issued by National Weather Service (NWS)

                            
000
ASUS44 KMEG 192300
RWRTN 
TENNESSEE HOURLY STATE WEATHER ROUNDUP
NATIONAL WEATHER SERVICE MEMPHIS TN
600 PM CDT WED JUN 19 2019

TNZ002-004-019-021-049-052-054-088>092-200000-
WEST TENNESSEE
  
CITY           SKY/WX    TMP DP  RH WIND       PRES   REMARKS
MEMPHIS INTL   FAIR      89  70  53 SW14G22   29.70S HX  94           
NWS MEMPHIS      N/A    N/A N/A N/A MISG        N/A                   
JACKSON        FAIR      87  72  60 SW15G23   29.69S HX  93           
DYERSBURG      FAIR      90  69  50 SW14      29.67S HX  94           
$$

TNZ008-025-027-028-033-062-065-066-200000-
NORTH MIDDLE TENNESSEE
  
CITY           SKY/WX    TMP DP  RH WIND       PRES   REMARKS
NASHVILLE      PTSUNNY   87  67  51 SW8       29.70F HX  90           
CLARKSVILLE    TSTM      72  66  81 W24G39    29.70R                  
SMYRNA         FAIR      86  71  60 S8        29.72F HX  91           
CROSSVILLE     FAIR      78  67  68 VRB7      29.81S                  
$$

TNZ061-075-076-078-094-096-097-200000-
SOUTH MIDDLE TENNESSEE
  
CITY           SKY/WX    TMP DP  RH WIND       PRES   REMARKS
$$

TNZ017-018-042-046-047-200000-
NORTHEAST TENNESSEE
  
CITY           SKY/WX    TMP DP  RH WIND       PRES   REMARKS
TRI CITIES     PTSUNNY   80  69  69 SW10      29.79S                  
$$

TNZ012-013-036-069-073-074-200000-
CENTRAL EAST TENNESSEE
  
CITY           SKY/WX    TMP DP  RH WIND       PRES   REMARKS
KNOXVILLE      PTSUNNY   81  68  64 SW13      29.75R                  
OAK RIDGE      FAIR      75  70  84 CALM      29.78F                  
$$

TNZ083-085-099-200000-
SOUTHEAST TENNESSEE
  
CITY           SKY/WX    TMP DP  RH WIND       PRES   REMARKS
CHATTANOOGA    FAIR      88  69  53 S13G20    29.76S HX  92           
$$

SKY/WX REPORTED AS FAIR MEANS FEW OR NO CLOUDS BELOW
12 THOUSAND FEET.